QPF
0.00 0.01 0.03 0.07 0.07 0.05 0.03 0.02 0.01 0.01 0.01 0.01 0.01 0.02 0.02 0.02 0.02 0.02 0.01 0.00 0.00 0.01 0.01 0.01 0.01 0.01 0.02 0.01 0.01 0.00 0.00 0.00 0.01 0.01 0.01 0.00 0.00 0.00 0.00 0.00 0.00 0.00 0.01
0.00 0.01 0.03 0.06 0.09 0.08 0.06 0.03 0.02 0.01 0.01 0.01 0.01 0.01 0.02 0.02 0.02 0.02 0.02 0.01 0.01 0.01 0.01 0.01 0.01 0.01 0.01 0.01 0.00 0.00 0.00 0.00 0.00 0.00 0.00 0.00 0.00 0.00 0.00 0.00 0.00 0.01 0.01
0.00 0.01 0.02 0.05 0.07 0.09 0.09 0.07 0.04 0.02 0.02 0.02 0.02 0.02 0.02 0.02 0.02 0.02 0.02 0.01 0.01 0.02 0.01 0.01 0.01 0.01 0.01 0.00 0.00 0.00 0.00 0.00 0.00 0.00 0.00 0.00 0.00 0.00 0.00 0.00 0.01 0.01 0.01
0.00 0.01 0.03 0.04 0.04 0.07 0.09 0.09 0.07 0.05 0.04 0.03 0.03 0.03 0.03 0.02 0.02 0.03 0.03 0.02 0.01 0.01 0.01 0.01 0.01 0.01 0.01 0.00 0.00 0.00 0.00 0.00 0.00 0.00 0.00 0.00 0.00 0.00 0.00 0.01 0.01 0.01 0.01
0.01 0.02 0.04 0.04 0.04 0.05 0.06 0.08 0.08 0.06 0.06 0.05 0.04 0.05 0.04 0.03 0.03 0.03 0.03 0.02 0.02 0.01 0.01 0.02 0.01 0.01 0.01 0.00 0.00 0.00 0.00 0.01 0.00 0.00 0.00 0.00 0.00 0.01 0.01 0.01 0.01 0.01 0.01
0.01 0.01 0.02 0.03 0.03 0.04 0.05 0.05 0.07 0.07 0.07 0.06 0.05 0.05 0.05 0.05 0.04 0.04 0.04 0.03 0.03 0.02 0.01 0.01 0.01 0.01 0.01 0.00 0.00 0.00 0.00 0.00 0.00 0.00 0.00 0.00 0.01 0.01 0.00 0.01 0.00 0.00 0.00
0.02 0.03 0.04 0.05 0.04 0.04 0.04 0.05 0.05 0.07 0.06 0.06 0.06 0.05 0.05 0.05 0.06 0.05 0.04 0.04 0.03 0.02 0.02 0.01 0.01 0.01 0.01 0.01 0.00 0.01 0.00 0.00 0.00 0.00 0.00 0.01 0.01 0.01 0.00 0.00 0.00 0.01 0.01
0.01 0.03 0.06 0.07 0.07 0.05 0.03 0.04 0.05 0.05 0.06 0.05 0.05 0.06 0.06 0.05 0.05 0.05 0.04 0.04 0.03 0.03 0.02 0.02 0.02 0.01 0.01 0.01 0.01 0.00 0.00 0.00 0.00 0.00 0.00 0.00 0.00 0.00 0.01 0.01 0.01 0.01 0.00
0.01 0.03 0.05 0.06 0.07 0.08 0.05 0.03 0.03 0.04 0.06 0.07 0.06 0.06 0.05 0.04 0.04 0.04 0.04 0.03 0.04 0.04 0.03 0.03 0.03 0.02 0.02 0.01 0.01 0.00 0.00 0.00 0.00 0.00 0.00 0.00 0.00 0.00 0.01 0.01 0.01 0.01 0.00
0.01 0.01 0.02 0.03 0.05 0.05 0.06 0.04 0.02 0.02 0.03 0.05 0.07 0.06 0.05 0.04 0.03 0.04 0.03 0.03 0.03 0.03 0.04 0.03 0.02 0.02 0.02 0.02 0.01 0.00 0.00 0.00 0.00 0.00 0.00 0.00 0.00 0.00 0.01 0.01 0.01 0.01 0.00
0.02 0.02 0.01 0.01 0.02 0.03 0.04 0.03 0.03 0.02 0.02 0.03 0.08 0.08 0.04 0.04 0.04 0.04 0.03 0.02 0.03 0.03 0.04 0.05 0.04 0.03 0.03 0.02 0.01 0.00 0.00 0.00 0.00 0.00 0.00 0.00 0.00 0.00 0.01 0.01 0.01 0.00 0.00
0.02 0.03 0.03 0.02 0.02 0.02 0.03 0.03 0.04 0.03 0.02 0.02 0.05 0.11 0.08 0.05 0.04 0.04 0.04 0.03 0.03 0.03 0.03 0.05 0.06 0.07 0.05 0.03 0.02 0.01 0.00 0.00 0.00 0.00 0.00 0.00 0.00 0.01 0.01 0.01 0.01 0.00 0.00
0.02 0.02 0.04 0.04 0.03 0.04 0.04 0.02 0.03 0.03 0.04 0.05 0.06 0.08 0.14 0.09 0.05 0.05 0.05 0.05 0.06 0.04 0.05 0.05 0.07 0.07 0.06 0.04 0.03 0.02 0.01 0.00 0.00 0.00 0.00 0.00 0.01 0.01 0.02 0.02 0.01 0.00 0.00
0.01 0.01 0.02 0.04 0.04 0.05 0.05 0.04 0.03 0.02 0.03 0.04 0.05 0.07 0.11 0.13 0.07 0.04 0.04 0.06 0.06 0.05 0.05 0.06 0.08 0.07 0.06 0.04 0.03 0.02 0.01 0.00 0.00 0.00 0.00 0.00 0.00 0.02 0.02 0.03 0.02 0.01 0.01
0.00 0.00 0.01 0.01 0.03 0.03 0.04 0.05 0.06 0.05 0.03 0.04 0.06 0.07 0.08 0.10 0.08 0.04 0.03 0.05 0.07 0.07 0.06 0.06 0.08 0.07 0.06 0.05 0.03 0.02 0.01 0.00 0.00 0.00 0.00 0.00 0.00 0.01 0.02 0.02 0.04 0.03 0.01
0.00 0.00 0.01 0.01 0.02 0.02 0.02 0.03 0.05 0.05 0.04 0.04 0.06 0.07 0.08 0.09 0.09 0.07 0.02 0.02 0.04 0.07 0.08 0.07 0.07 0.08 0.08 0.07 0.05 0.02 0.01 0.01 0.00 0.00 0.00 0.00 0.00 0.00 0.01 0.02 0.03 0.04 0.03
0.00 0.00 0.00 0.01 0.01 0.01 0.01 0.01 0.02 0.03 0.05 0.06 0.07 0.07 0.08 0.08 0.10 0.10 0.06 0.04 0.03 0.05 0.07 0.08 0.08 0.09 0.08 0.08 0.07 0.05 0.03 0.01 0.01 0.00 0.00 0.00 0.00 0.00 0.00 0.01 0.02 0.04 0.05
0.01 0.00 0.00 0.01 0.01 0.01 0.01 0.01 0.01 0.01 0.02 0.05 0.08 0.08 0.09 0.09 0.09 0.11 0.10 0.06 0.05 0.06 0.07 0.08 0.08 0.08 0.08 0.07 0.06 0.05 0.04 0.03 0.02 0.01 0.01 0.00 0.00 0.00 0.00 0.00 0.01 0.02 0.03
0.01 0.01 0.01 0.02 0.03 0.02 0.01 0.01 0.01 0.01 0.01 0.02 0.04 0.06 0.07 0.08 0.09 0.10 0.10 0.09 0.06 0.07 0.08 0.10 0.10 0.09 0.08 0.06 0.05 0.05 0.04 0.03 0.03 0.01 0.01 0.01 0.01 0.01 0.01 0.01 0.01 0.01 0.01
0.01 0.02 0.01 0.02 0.04 0.03 0.01 0.01 0.01 0.01 0.02 0.02 0.02 0.03 0.04 0.05 0.06 0.08 0.09 0.08 0.08 0.07 0.08 0.10 0.12 0.13 0.13 0.11 0.08 0.06 0.05 0.04 0.03 0.02 0.01 0.01 0.01 0.01 0.01 0.01 0.01 0.01 0.01
0.01 0.02 0.01 0.01 0.03 0.04 0.03 0.01 0.01 0.02 0.02 0.02 0.02 0.01 0.02 0.03 0.04 0.05 0.07 0.08 0.07 0.07 0.07 0.08 0.09 0.11 0.14 0.14 0.13 0.10 0.07 0.05 0.04 0.02 0.02 0.01 0.01 0.01 0.02 0.01 0.01 0.01 0.01
0.00 0.01 0.01 0.01 0.01 0.02 0.03 0.02 0.02 0.02 0.02 0.02 0.02 0.02 0.02 0.02 0.02 0.03 0.04 0.05 0.07 0.07 0.08 0.10 0.12 0.12 0.14 0.16 0.16 0.14 0.11 0.08 0.05 0.03 0.02 0.02 0.01 0.01 0.02 0.02 0.02 0.02 0.02
0.00 0.00 0.01 0.01 0.01 0.01 0.01 0.01 0.01 0.02 0.01 0.01 0.02 0.01 0.01 0.01 0.01 0.03 0.03 0.03 0.04 0.05 0.05 0.07 0.10 0.13 0.15 0.15 0.15 0.17 0.17 0.13 0.09 0.06 0.03 0.02 0.01 0.01 0.01 0.02 0.02 0.02 0.02
0.00 0.00 0.00 0.01 0.01 0.01 0.01 0.01 0.01 0.01 0.01 0.01 0.02 0.01 0.01 0.01 0.01 0.02 0.03 0.03 0.03 0.03 0.04 0.05 0.07 0.10 0.14 0.16 0.16 0.15 0.13 0.11 0.10 0.09 0.06 0.04 0.03 0.02 0.02 0.02 0.02 0.02 0.02
0.00 0.00 0.00 0.00 0.01 0.01 0.02 0.02 0.01 0.01 0.01 0.01 0.02 0.03 0.01 0.01 0.01 0.01 0.02 0.01 0.02 0.02 0.03 0.04 0.06 0.08 0.11 0.13 0.14 0.15 0.15 0.13 0.10 0.08 0.08 0.07 0.06 0.04 0.03 0.02 0.02 0.03 0.03
0.00 0.00 0.00 0.00 0.01 0.01 0.02 0.03 0.03 0.02 0.01 0.01 0.02 0.03 0.04 0.04 0.02 0.01 0.01 0.01 0.02 0.02 0.03 0.03 0.03 0.05 0.07 0.08 0.09 0.10 0.09 0.09 0.08 0.07 0.07 0.07 0.07 0.07 0.06 0.04 0.03 0.03 0.03
MSLP
1015.62 1015.43 1015.26 1015.18 1015.19 1015.28 1015.44 1015.61 1015.77 1015.90 1015.98 1016.04 1016.10 1016.19 1016.31 1016.47 1016.64 1016.81 1016.95 1017.04 1017.08 1017.08 1017.06 1017.04 1017.05 1017.10 1017.18 1017.28 1017.36 1017.43 1017.45 1017.43 1017.39 1017.32 1017.27 1017.23 1017.21 1017.23 1017.25 1017.28 1017.29 1017.29 1017.27
1015.68 1015.49 1015.33 1015.26 1015.29 1015.41 1015.59 1015.78 1015.95 1016.08 1016.17 1016.23 1016.30 1016.38 1016.51 1016.66 1016.84 1017.01 1017.14 1017.22 1017.25 1017.24 1017.22 1017.21 1017.23 1017.29 1017.39 1017.50 1017.60 1017.67 1017.69 1017.66 1017.60 1017.53 1017.47 1017.44 1017.43 1017.45 1017.49 1017.53 1017.56 1017.57 1017.56
1015.78 1015.59 1015.44 1015.37 1015.41 1015.54 1015.73 1015.93 1016.13 1016.28 1016.38 1016.46 1016.54 1016.63 1016.75 1016.90 1017.06 1017.21 1017.31 1017.37 1017.38 1017.36 1017.34 1017.33 1017.37 1017.45 1017.57 1017.69 1017.80 1017.87 1017.88 1017.85 1017.78 1017.71 1017.64 1017.61 1017.62 1017.65 1017.71 1017.77 1017.81 1017.83 1017.84
1015.94 1015.74 1015.59 1015.52 1015.55 1015.68 1015.88 1016.09 1016.30 1016.47 1016.59 1016.69 1016.78 1016.88 1016.99 1017.13 1017.26 1017.38 1017.46 1017.49 1017.48 1017.46 1017.44 1017.45 1017.51 1017.61 1017.74 1017.88 1017.99 1018.06 1018.07 1018.03 1017.95 1017.87 1017.81 1017.78 1017.80 1017.85 1017.92 1017.99 1018.05 1018.09 1018.11
1016.14 1015.95 1015.79 1015.72 1015.75 1015.87 1016.06 1016.27 1016.48 1016.65 1016.78 1016.89 1016.98 1017.08 1017.18 1017.30 1017.41 1017.49 1017.55 1017.57 1017.56 1017.54 1017.54 1017.58 1017.67 1017.79 1017.94 1018.09 1018.21 1018.26 1018.26 1018.21 1018.13 1018.04 1017.98 1017.95 1017.98 1018.04 1018.12 1018.21 1018.28 1018.34 1018.37
1016.37 1016.20 1016.06 1015.99 1016.02 1016.12 1016.29 1016.48 1016.66 1016.82 1016.94 1017.03 1017.12 1017.20 1017.28 1017.37 1017.46 1017.53 1017.58 1017.60 1017.60 1017.61 1017.65 1017.73 1017.84 1018.00 1018.17 1018.32 1018.43 1018.48 1018.47 1018.40 1018.31 1018.22 1018.15 1018.13 1018.16 1018.22 1018.31 1018.41 1018.49 1018.56 1018.62
1016.65 1016.51 1016.39 1016.34 1016.37 1016.45 1016.59 1016.73 1016.87 1016.98 1017.06 1017.12 1017.17 1017.23 1017.29 1017.35 1017.42 1017.48 1017.53 1017.57 1017.60 1017.66 1017.74 1017.86 1018.02 1018.20 1018.38 1018.53 1018.63 1018.66 1018.64 1018.56 1018.46 1018.37 1018.30 1018.28 1018.31 1018.38 1018.48 1018.58 1018.67 1018.75 1018.82
1016.96 1016.87 1016.80 1016.77 1016.80 1016.87 1016.95 1017.04 1017.11 1017.16 1017.18 1017.18 1017.18 1017.19 1017.21 1017.25 1017.30 1017.36 1017.41 1017.48 1017.55 1017.65 1017.78 1017.94 1018.13 1018.32 1018.51 1018.65 1018.74 1018.76 1018.72 1018.63 1018.53 1018.45 1018.39 1018.38 1018.42 1018.50 1018.60 1018.70 1018.80 1018.89 1018.97
1017.31 1017.28 1017.27 1017.27 1017.30 1017.35 1017.38 1017.41 1017.40 1017.36 1017.30 1017.23 1017.17 1017.13 1017.11 1017.11 1017.14 1017.19 1017.25 1017.33 1017.43 1017.56 1017.72 1017.91 1018.12 1018.32 1018.49 1018.62 1018.69 1018.70 1018.65 1018.57 1018.48 1018.42 1018.39 1018.40 1018.46 1018.55 1018.65 1018.77 1018.87 1018.97 1019.06
1017.69 1017.74 1017.78 1017.81 1017.85 1017.86 1017.85 1017.80 1017.71 1017.60 1017.46 1017.32 1017.20 1017.10 1017.03 1017.00 1017.00 1017.02 1017.07 1017.15 1017.26 1017.40 1017.57 1017.76 1017.96 1018.15 1018.31 1018.42 1018.47 1018.47 1018.43 1018.36 1018.30 1018.26 1018.27 1018.32 1018.41 1018.52 1018.65 1018.77 1018.88 1018.98 1019.08
1018.11 1018.21 1018.30 1018.36 1018.38 1018.37 1018.30 1018.19 1018.04 1017.86 1017.66 1017.46 1017.29 1017.14 1017.03 1016.96 1016.92 1016.91 1016.92 1016.97 1017.06 1017.17 1017.32 1017.48 1017.66 1017.82 1017.95 1018.04 1018.08 1018.08 1018.05 1018.02 1017.99 1018.01 1018.06 1018.16 1018.28 1018.43 1018.57 1018.71 1018.82 1018.93 1019.03
1018.55 1018.70 1018.80 1018.86 1018.87 1018.82 1018.71 1018.55 1018.35 1018.12 1017.89 1017.66 1017.46 1017.28 1017.14 1017.02 1016.93 1016.87 1016.84 1016.83 1016.85 1016.91 1017.00 1017.12 1017.24 1017.37 1017.47 1017.54 1017.57 1017.58 1017.58 1017.58 1017.60 1017.67 1017.78 1017.92 1018.09 1018.27 1018.44 1018.59 1018.71 1018.82 1018.92
1018.99 1019.16 1019.26 1019.30 1019.28 1019.18 1019.03 1018.84 1018.61 1018.37 1018.12 1017.90 1017.69 1017.51 1017.34 1017.19 1017.05 1016.93 1016.82 1016.74 1016.68 1016.66 1016.68 1016.72 1016.79 1016.87 1016.94 1016.99 1017.02 1017.05 1017.07 1017.11 1017.18 1017.30 1017.45 1017.65 1017.85 1018.06 1018.25 1018.41 1018.54 1018.65 1018.74
1019.43 1019.58 1019.66 1019.66 1019.58 1019.44 1019.25 1019.04 1018.80 1018.57 1018.35 1018.14 1017.96 1017.78 1017.61 1017.44 1017.26 1017.07 1016.89 1016.71 1016.57 1016.45 1016.38 1016.36 1016.36 1016.39 1016.43 1016.47 1016.50 1016.54 1016.59 1016.66 1016.77 1016.92 1017.11 1017.33 1017.56 1017.79 1018.00 1018.16 1018.30 1018.40 1018.50
1019.84 1019.96 1019.98 1019.92 1019.79 1019.60 1019.38 1019.15 1018.92 1018.71 1018.53 1018.36 1018.21 1018.06 1017.90 1017.71 1017.50 1017.26 1017.00 1016.75 1016.52 1016.32 1016.17 1016.07 1016.01 1016.00 1016.01 1016.03 1016.06 1016.10 1016.16 1016.25 1016.37 1016.53 1016.73 1016.97 1017.21 1017.44 1017.65 1017.82 1017.96 1018.07 1018.16
1020.20 1020.27 1020.24 1020.12 1019.93 1019.70 1019.45 1019.21 1018.99 1018.81 1018.66 1018.53 1018.41 1018.29 1018.14 1017.95 1017.71 1017.44 1017.13 1016.82 1016.52 1016.25 1016.03 1015.87 1015.77 1015.71 1015.69 1015.70 1015.71 1015.74 1015.79 1015.87 1015.98 1016.12 1016.31 1016.53 1016.76 1016.98 1017.19 1017.36 1017.50 1017.62 1017.71
1020.51 1020.53 1020.44 1020.27 1020.04 1019.77 1019.50 1019.25 1019.04 1018.87 1018.74 1018.64 1018.54 1018.43 1018.29 1018.10 1017.86 1017.56 1017.23 1016.88 1016.54 1016.23 1015.97 1015.77 1015.62 1015.53 1015.48 1015.45 1015.44 1015.44 1015.45 1015.49 1015.56 1015.67 1015.81 1015.99 1016.19 1016.40 1016.59 1016.77 1016.91 1017.04 1017.15
1020.73 1020.72 1020.60 1020.40 1020.14 1019.86 1019.58 1019.32 1019.10 1018.93 1018.80 1018.69 1018.59 1018.48 1018.33 1018.14 1017.89 1017.59 1017.26 1016.90 1016.55 1016.23 1015.95 1015.72 1015.54 1015.41 1015.32 1015.25 1015.19 1015.14 1015.11 1015.09 1015.09 1015.14 1015.23 1015.35 1015.51 1015.68 1015.86 1016.04 1016.20 1016.34 1016.48
1020.86 1020.84 1020.72 1020.52 1020.27 1019.99 1019.70 1019.44 1019.21 1019.01 1018.85 1018.70 1018.57 1018.43 1018.26 1018.06 1017.81 1017.53 1017.21 1016.87 1016.53 1016.22 1015.93 1015.69 1015.48 1015.32 1015.18 1015.06 1014.95 1014.83 1014.73 1014.64 1014.57 1014.55 1014.56 1014.63 1014.73 1014.88 1015.04 1015.21 1015.38 1015.55 1015.72
1020.88 1020.89 1020.80 1020.63 1020.40 1020.15 1019.88 1019.61 1019.36 1019.12 1018.90 1018.69 1018.50 1018.30 1018.10 1017.88 1017.64 1017.37 1017.08 1016.78 1016.47 1016.18 1015.90 1015.65 1015.42 1015.22 1015.03 1014.85 1014.67 1014.50 1014.32 1014.16 1014.02 1013.92 1013.87 1013.88 1013.93 1014.04 1014.17 1014.34 1014.52 1014.71 1014.91
1020.79 1020.84 1020.81 1020.70 1020.53 1020.32 1020.08 1019.81 1019.53 1019.25 1018.96 1018.68 1018.41 1018.15 1017.90 1017.65 1017.41 1017.16 1016.90 1016.64 1016.37 1016.10 1015.84 1015.58 1015.33 1015.08 1014.85 1014.61 1014.38 1014.14 1013.91 1013.69 1013.49 1013.33 1013.22 1013.17 1013.17 1013.23 1013.34 1013.49 1013.67 1013.88 1014.09
1020.60 1020.71 1020.75 1020.71 1020.62 1020.46 1020.26 1020.01 1019.71 1019.38 1019.03 1018.67 1018.32 1017.99 1017.69 1017.41 1017.16 1016.93 1016.71 1016.48 1016.24 1016.00 1015.73 1015.46 1015.19 1014.91 1014.63 1014.35 1014.08 1013.80 1013.53 1013.27 1013.04 1012.83 1012.67 1012.56 1012.51 1012.53 1012.60 1012.72 1012.89 1013.09 1013.31
1020.34 1020.51 1020.62 1020.66 1020.63 1020.54 1020.38 1020.15 1019.85 1019.49 1019.09 1018.67 1018.25 1017.86 1017.52 1017.21 1016.96 1016.73 1016.53 1016.32 1016.09 1015.85 1015.58 1015.29 1014.98 1014.68 1014.37 1014.06 1013.77 1013.48 1013.20 1012.93 1012.68 1012.45 1012.26 1012.10 1012.00 1011.96 1011.98 1012.06 1012.19 1012.36 1012.58
1020.04 1020.27 1020.43 1020.53 1020.56 1020.53 1020.41 1020.21 1019.91 1019.54 1019.12 1018.66 1018.20 1017.78 1017.40 1017.07 1016.80 1016.57 1016.36 1016.15 1015.92 1015.66 1015.36 1015.04 1014.70 1014.37 1014.04 1013.73 1013.44 1013.17 1012.91 1012.66 1012.42 1012.18 1011.97 1011.77 1011.62 1011.51 1011.46 1011.48 1011.56 1011.70 1011.89
1019.76 1020.01 1020.21 1020.35 1020.42 1020.42 1020.34 1020.17 1019.89 1019.53 1019.11 1018.64 1018.17 1017.73 1017.33 1016.99 1016.70 1016.45 1016.22 1015.97 1015.70 1015.40 1015.05 1014.69 1014.32 1013.95 1013.62 1013.33 1013.06 1012.83 1012.62 1012.41 1012.20 1011.97 1011.74 1011.51 1011.30 1011.12 1011.00 1010.94 1010.96 1011.06 1011.22
1019.51 1019.78 1019.98 1020.13 1020.22 1020.25 1020.19 1020.04 1019.80 1019.46 1019.06 1018.61 1018.15 1017.71 1017.31 1016.96 1016.64 1016.36 1016.07 1015.77 1015.43 1015.05 1014.64 1014.21 1013.80 1013.41 1013.08 1012.81 1012.59 1012.42 1012.27 1012.12 1011.95 1011.74 1011.50 1011.24 1010.97 1010.72 1010.52 1010.39 1010.34 1010.38 1010.51
Thickness
5738 5740 5739 5740 5741 5741 5741 5742 5742 5742 5742 5742 5742 5741 5741 5741 5740 5740 5739 5739 5739 5739 5738 5738 5738 5737 5736 5736 5735 5735 5734 5733 5733 5732 5731 5731 5730 5730 5729 5729 5729 5729 5726
5733 5735 5734 5736 5736 5737 5737 5738 5738 5738 5738 5738 5738 5738 5738 5737 5737 5737 5737 5736 5736 5736 5736 5735 5735 5734 5733 5732 5732 5731 5731 5730 5729 5728 5728 5728 5727 5726 5726 5726 5726 5725 5723
5729 5730 5730 5730 5731 5732 5733 5733 5734 5734 5734 5734 5735 5735 5734 5734 5734 5734 5734 5734 5733 5733 5733 5732 5732 5731 5730 5729 5728 5728 5727 5726 5726 5726 5726 5727 5725 5723 5723 5722 5722 5721 5720
5723 5724 5724 5724 5726 5726 5727 5728 5729 5729 5730 5730 5731 5731 5731 5731 5731 5731 5731 5731 5730 5730 5729 5729 5728 5728 5727 5726 5725 5724 5723 5723 5722 5723 5726 5725 5723 5720 5719 5719 5718 5718 5717
5718 5719 5718 5718 5719 5721 5722 5722 5723 5724 5725 5726 5726 5727 5727 5727 5727 5728 5727 5727 5727 5727 5726 5726 5725 5724 5724 5723 5722 5721 5720 5719 5719 5721 5722 5722 5720 5717 5716 5716 5715 5714 5713
5711 5712 5712 5712 5713 5714 5715 5716 5717 5719 5720 5720 5721 5722 5723 5723 5723 5724 5724 5724 5723 5723 5723 5722 5722 5721 5720 5719 5719 5718 5717 5716 5717 5719 5719 5718 5717 5714 5713 5712 5711 5710 5709
5704 5705 5705 5705 5706 5707 5709 5710 5711 5712 5714 5715 5716 5717 5718 5719 5719 5720 5720 5720 5720 5720 5719 5719 5718 5718 5717 5716 5715 5714 5713 5713 5716 5716 5715 5715 5713 5710 5710 5709 5708 5707 5706
5696 5697 5698 5698 5699 5701 5702 5703 5705 5706 5708 5709 5711 5712 5713 5714 5715 5715 5716 5716 5716 5716 5715 5715 5714 5714 5713 5713 5712 5711 5710 5709 5711 5713 5712 5711 5708 5707 5706 5705 5704 5703 5702
5688 5690 5691 5692 5693 5694 5696 5697 5698 5700 5702 5703 5705 5707 5708 5709 5710 5711 5711 5711 5712 5711 5711 5711 5711 5710 5709 5709 5708 5707 5706 5706 5709 5709 5708 5707 5705 5703 5703 5702 5701 5700 5699
5680 5682 5683 5685 5686 5688 5690 5690 5692 5694 5696 5698 5699 5701 5702 5704 5705 5706 5707 5707 5707 5707 5707 5707 5707 5706 5705 5705 5704 5703 5703 5702 5706 5705 5705 5704 5701 5700 5699 5698 5697 5696 5695
5672 5673 5675 5677 5679 5681 5683 5684 5686 5688 5690 5692 5694 5695 5697 5699 5701 5702 5703 5703 5703 5703 5702 5702 5702 5702 5701 5700 5700 5699 5699 5701 5703 5703 5702 5700 5698 5697 5696 5695 5694 5693 5692
5663 5664 5666 5668 5671 5673 5675 5678 5680 5682 5684 5686 5688 5690 5692 5694 5696 5697 5698 5698 5698 5699 5698 5698 5698 5697 5697 5698 5697 5695 5697 5699 5700 5699 5698 5696 5694 5693 5693 5692 5690 5689 5688
5654 5656 5657 5660 5662 5665 5668 5670 5673 5675 5678 5680 5682 5684 5685 5688 5690 5692 5693 5694 5694 5695 5695 5695 5694 5695 5696 5697 5696 5695 5696 5697 5697 5697 5696 5692 5691 5690 5690 5688 5687 5686 5685
5645 5647 5648 5650 5653 5656 5659 5662 5665 5668 5670 5673 5675 5676 5679 5681 5683 5686 5688 5690 5691 5692 5692 5693 5693 5693 5694 5694 5694 5694 5694 5693 5693 5693 5692 5689 5688 5687 5686 5685 5684 5683 5682
5637 5638 5640 5642 5645 5647 5650 5653 5656 5659 5662 5665 5667 5669 5671 5674 5677 5679 5681 5684 5686 5687 5688 5689 5689 5690 5690 5690 5691 5691 5691 5690 5690 5689 5688 5686 5684 5683 5683 5682 5681 5680 5679
5629 5630 5632 5634 5636 5639 5642 5645 5648 5650 5653 5656 5659 5662 5663 5666 5669 5671 5674 5676 5679 5681 5682 5684 5685 5685 5685 5685 5686 5686 5686 5686 5686 5685 5685 5683 5680 5680 5679 5678 5678 5677 5676
5621 5622 5624 5626 5628 5631 5633 5636 5639 5641 5644 5648 5651 5653 5655 5658 5661 5663 5667 5669 5672 5674 5675 5677 5679 5679 5679 5679 5679 5679 5680 5681 5681 5681 5680 5679 5678 5676 5675 5675 5674 5673 5672
5613 5614 5616 5618 5620 5622 5624 5627 5630 5633 5636 5639 5642 5645 5647 5650 5652 5655 5659 5662 5664 5666 5668 5670 5672 5672 5672 5672 5673 5674 5674 5674 5676 5676 5675 5675 5674 5674 5672 5671 5670 5669 5669
5605 5607 5609 5610 5612 5614 5615 5618 5621 5623 5627 5630 5633 5636 5638 5641 5644 5647 5650 5653 5655 5658 5661 5663 5664 5665 5665 5665 5666 5667 5668 5668 5669 5670 5671 5670 5670 5669 5669 5668 5666 5665 5664
5598 5600 5602 5603 5604 5606 5608 5611 5613 5616 5619 5621 5624 5626 5629 5632 5635 5638 5640 5643 5646 5649 5652 5654 5655 5657 5657 5658 5658 5659 5661 5662 5663 5665 5665 5665 5665 5664 5664 5664 5662 5661 5659
5592 5593 5595 5596 5597 5598 5600 5602 5606 5609 5611 5613 5615 5617 5620 5623 5625 5628 5631 5633 5636 5639 5642 5645 5646 5647 5648 5649 5648 5649 5652 5655 5657 5658 5659 5659 5660 5659 5658 5658 5658 5657 5656
5587 5587 5588 5588 5589 5590 5590 5592 5594 5597 5601 5604 5605 5607 5610 5613 5615 5619 5621 5623 5626 5628 5631 5634 5636 5637 5639 5640 5641 5640 5642 5645 5649 5650 5652 5653 5653 5653 5653 5652 5652 5651 5651
5581 5580 5580 5580 5580 5581 5582 5584 5587 5590 5592 5595 5597 5599 5601 5603 5606 5608 5612 5614 5616 5618 5621 5624 5626 5628 5629 5631 5632 5633 5635 5639 5642 5643 5645 5646 5646 5647 5646 5646 5645 5644 5644
5574 5573 5573 5573 5573 5574 5575 5576 5579 5581 5584 5586 5588 5589 5591 5593 5596 5598 5601 5603 5605 5608 5611 5614 5616 5618 5620 5622 5623 5624 5628 5631 5631 5634 5636 5638 5638 5638 5639 5639 5638 5638 5637
5567 5566 5566 5566 5566 5567 5567 5568 5570 5573 5575 5577 5578 5580 5582 5584 5585 5588 5590 5593 5595 5598 5601 5604 5606 5608 5611 5613 5615 5616 5617 5619 5622 5624 5627 5629 5629 5630 5631 5631 5630 5630 5629
5562 5560 5559 5559 5559 5559 5559 5561 5562 5564 5566 5569 5570 5571 5573 5574 5576 5578 5579 5582 5585 5588 5591 5594 5596 5599 5601 5603 5605 5608 5609 5611 5614 5615 5618 5620 5620 5622 5621 5622 5622 5621 5621